Waarnemingen

Advertentie
Mijn weer
Charlwood, Groot Brittannië (3769): temperatuur & dauwpunt: 21.01.2021 12:00:00 - 27.01.2021 12:00:00 (GMT)Charlwood, Groot Brittannië (3769): temperatuur -20cm & temperatuur -100cm: 21.01.2021 12:00:00 - 27.01.2021 12:00:00 (GMT)Charlwood, Groot Brittannië (3769): windsnelheid: 21.01.2021 12:00:00 - 27.01.2021 12:00:00 (GMT)Charlwood, Groot Brittannië (3769): windrichting: 21.01.2021 12:00:00 - 27.01.2021 12:00:00 (GMT)Charlwood, Groot Brittannië (3769): luchtdruk: 21.01.2021 12:00:00 - 27.01.2021 12:00:00 (GMT)Charlwood, Groot Brittannië (3769): zicht: 21.01.2021 12:00:00 - 27.01.2021 12:00:00 (GMT)Charlwood, Groot Brittannië (3769): Zonneschijnduur: 21.01.2021 12:00:00 - 27.01.2021 12:00:00 (GMT)Charlwood, Groot Brittannië (3769): neerslag: 21.01.2021 12:00:00 - 27.01.2021 12:00:00 (GMT)
Datum & Tijd tt [°C] td [°C] tt -20cm [°C] tt -100cm [°C] ff [km/u] ff [kn] dd ppp [hPa] vv [km] sd [min] rr [mm]
27.01.2021 12:00:00 8,8 8,5 - - 11 6 WZW 1012,5 2,8 0 0,0
27.01.2021 11:00:00 8,4 8,0 - - 15 8 WZW 1012,7 7 0 0,0
27.01.2021 10:00:00 8,0 7,8 - - 11 6 W 1012,3 5 0 0,0
27.01.2021 09:00:00 7,3 7,2 4,5 7,0 9 5 W 1012,0 3,6 0 0,0
27.01.2021 08:00:00 7,0 6,9 - - 9 5 WZW 1011,3 4,3 0 0,0
27.01.2021 07:00:00 7,3 7,2 - - 8 4 W 1011,1 3,6 0 0,0
27.01.2021 06:00:00 7,4 7,2 - - 5 3 WNW 1011,0 3,0 0 0,0
27.01.2021 05:00:00 7,4 7,3 - - 5 3 W 1010,6 6 0 0,0
27.01.2021 04:00:00 7,5 7,4 - - 5 3 WZW 1010,1 5 0 0,2
27.01.2021 03:00:00 7,4 7,4 - - 8 4 W 1010,2 7 0 0,0
27.01.2021 02:00:00 7,1 7,1 - - 5 3 W 1010,4 1,2 0 0,0
27.01.2021 01:00:00 7,0 6,9 - - 9 5 ZW 1010,3 1,9 0 0,0
27.01.2021 00:00:00 6,7 6,6 - - 11 6 ZW 1010,7 2,3 - 0,0
26.01.2021 23:00:00 6,3 6,1 - - 16 9 ZZW 1010,8 4,9 0 0,0
26.01.2021 22:00:00 6,0 5,7 - - 16 9 ZW 1011,5 3,9 0 0,2
26.01.2021 21:00:00 5,8 5,5 - - 18 10 ZZW 1011,6 5 0 0,0
26.01.2021 20:00:00 5,3 5,0 - - 15 8 ZZW 1012,5 8 0 0,6
26.01.2021 19:00:00 5,3 4,9 - - 16 9 ZZW 1013,3 5 0 1,2
26.01.2021 18:00:00 5,1 4,8 - - 16 9 ZZW 1014,0 3,6 0 1,2
26.01.2021 17:00:00 4,8 4,3 - - 15 8 ZZW 1014,1 3,6 0 0,2
26.01.2021 16:00:00 5,2 3,6 - - 15 8 ZZW 1015,0 8 0 0,0
26.01.2021 15:00:00 5,3 3,5 - - 15 8 ZZW 1015,4 45 0 0,0
26.01.2021 14:00:00 5,4 3,9 - - 13 7 ZZW 1016,5 30 0 0,0
26.01.2021 13:00:00 4,7 3,7 - - 9 5 ZW 1017,0 35 0 0,0
26.01.2021 12:00:00 3,7 3,5 - - 5 3 ZZW 1017,3 20 0 1,0
26.01.2021 11:00:00 3,3 3,0 - - 13 7 ZZW 1018,2 4,9 0 0,6
26.01.2021 10:00:00 -0,2 -0,3 - - 2 1 N 1018,7 9 0 0,0
26.01.2021 09:00:00 -1,5 -1,6 4,4 7,2 0 0 N 1018,5 8 0 0,0
26.01.2021 08:00:00 -2,0 -2,2 - - 2 1 W 1018,5 11 0 0,0
26.01.2021 07:00:00 -2,5 -2,8 - - 0 0 N 1018,2 13 0 0,0
26.01.2021 06:00:00 -2,9 -3,4 - - 0 0 N 1018,1 9 0 0,0
26.01.2021 05:00:00 -2,3 -2,9 - - 4 2 W 1018,2 20 0 0,0
26.01.2021 04:00:00 -2,0 -2,5 - - 4 2 WZW 1018,1 17 0 0,0
26.01.2021 03:00:00 -1,3 -1,8 - - 5 3 WZW 1018,1 25 0 0,0
26.01.2021 02:00:00 -2,4 -2,8 - - 8 4 WZW 1018,1 29 0 0,0
26.01.2021 01:00:00 -2,3 -3,2 - - 5 3 WZW 1017,7 30 0 0,0
26.01.2021 00:00:00 -0,7 -2,6 - - 11 6 WZW 1017,5 45 - 0,0
25.01.2021 23:00:00 0,2 -2,7 - - 8 4 W 1017,1 50 0 0,0
25.01.2021 22:00:00 0,6 -2,3 - - 11 6 W 1016,5 50 0 0,0
25.01.2021 21:00:00 0,6 -1,8 - - 11 6 W 1016,3 50 0 0,0
25.01.2021 20:00:00 0,9 -1,8 - - 8 4 W 1015,7 50 0 0,0
25.01.2021 19:00:00 1,3 -1,6 - - 11 6 W 1014,9 50 0 0,0
25.01.2021 18:00:00 1,1 -1,9 - - 8 4 WZW 1014,1 50 0 0,0
25.01.2021 17:00:00 2,6 -1,7 - - 8 4 W 1013,5 45 0 0,0
25.01.2021 16:00:00 4,0 -1,1 - - 8 4 W 1012,8 45 18 0,0
25.01.2021 15:00:00 5,1 -0,9 - - 9 5 W 1011,9 45 60 0,0
25.01.2021 14:00:00 5,0 -0,1 - - 11 6 WNW 1011,3 35 54 0,0
25.01.2021 13:00:00 4,4 -0,5 - - 11 6 WNW 1010,8 35 60 0,0
25.01.2021 12:00:00 3,4 -1,1 - - 9 5 WNW 1010,5 28 60 0,0
25.01.2021 11:00:00 2,9 -1,5 - - 9 5 WNW 1010,2 40 54 0,2
25.01.2021 10:00:00 1,0 -2,0 - - 8 4 WNW 1009,4 40 54 0,0
25.01.2021 09:00:00 -1,3 -3,2 4,7 7,4 5 3 WNW 1008,6 24 6 0,0
25.01.2021 08:00:00 -2,0 -4,0 - - 5 3 NW 1007,7 24 0 0,0
25.01.2021 07:00:00 -1,8 -3,7 - - 9 5 NW 1006,7 22 0 0,0
25.01.2021 06:00:00 -1,4 -2,7 - - 8 4 NW 1005,7 18 0 0,0
25.01.2021 05:00:00 -0,8 -1,8 - - 9 5 NW 1004,8 13 0 0,0
25.01.2021 04:00:00 -0,5 -1,3 - - 11 6 NNW 1003,9 13 0 0,0
25.01.2021 03:00:00 0,2 -0,9 - - 11 6 NNW 1002,6 15 0 0,0
25.01.2021 02:00:00 0,6 -0,2 - - 9 5 N 1001,6 10 0 0,0
25.01.2021 01:00:00 0,9 0,1 - - 9 5 N 1000,5 13 0 0,0
25.01.2021 00:00:00 0,7 0,3 - - 5 3 NNW 999,3 7 - 0,0
24.01.2021 23:00:00 0,4 -0,1 - - 9 5 NNW 998,2 2,9 0 0,0
24.01.2021 22:00:00 0,7 -0,6 - - 9 5 NW 997,1 23 0 0,0
24.01.2021 21:00:00 0,4 -1,1 - - 4 2 NNW 996,4 45 0 0,0
24.01.2021 20:00:00 0,9 -0,9 - - 5 3 NW 995,8 50 0 0,0
24.01.2021 19:00:00 1,1 -0,3 - - 5 3 NW 995,4 45 0 0,0
24.01.2021 18:00:00 0,9 0,3 - - 4 2 W 994,7 10 0 0,0
24.01.2021 17:00:00 1,3 0,2 - - 4 2 W 994,6 40 0 0,0
24.01.2021 16:00:00 1,6 0,2 - - 5 3 WNW 994,4 35 0 0,0
24.01.2021 15:00:00 1,8 0,6 - - 9 5 WNW 994,2 50 0 0,0
24.01.2021 14:00:00 1,4 1,2 - - 8 4 W 994,1 16 0 0,2
24.01.2021 13:00:00 1,6 1,4 - - 4 2 ZZO 994,1 8 0 2,2
24.01.2021 12:00:00 1,0 0,8 - - 5 3 ZO 994,6 8 0 0,0
24.01.2021 11:00:00 0,8 0,7 - - 8 4 ZZO 995,6 15 0 0,0
24.01.2021 10:00:00 0,0 -0,1 - - 5 3 ZO 996,2 3,8 0 0,0
24.01.2021 09:00:00 -1,9 -2,2 5,2 7,4 8 4 ONO 996,6 20 0 0,0
24.01.2021 08:00:00 -2,5 -2,7 - - 8 4 ONO 997,5 14 0 0,0
24.01.2021 07:00:00 -3,5 -3,9 - - 4 2 NO 998,4 12 0 0,0
24.01.2021 06:00:00 -3,9 -4,3 - - 2 1 W 999,1 14 0 0,0
24.01.2021 05:00:00 -4,7 -5,2 - - 2 1 NNO 999,2 12 0 0,0
24.01.2021 04:00:00 -4,5 -5,1 - - 4 2 WZW 999,7 14 0 0,0
24.01.2021 03:00:00 -3,8 -4,2 - - 5 3 ZW 999,7 16 0 0,0
24.01.2021 02:00:00 -3,7 -4,2 - - 4 2 ZW 999,9 15 0 0,0
24.01.2021 01:00:00 -4,0 -4,6 - - 4 2 W 999,7 14 0 0,0
24.01.2021 00:00:00 -3,3 -4,4 - - 4 2 WZW 999,3 14 - 0,0
23.01.2021 23:00:00 -1,0 -2,6 - - 8 4 W 999,0 30 0 0,0
23.01.2021 22:00:00 -1,6 -2,9 - - 9 5 WZW 998,6 40 0 0,0
23.01.2021 21:00:00 -2,1 -3,0 - - 4 2 W 998,1 24 0 0,0
23.01.2021 20:00:00 -1,4 -2,6 - - 5 3 WZW 997,8 40 0 0,0
23.01.2021 19:00:00 0,0 -2,4 - - 4 2 W 997,1 50 0 0,0
23.01.2021 18:00:00 0,8 -1,4 - - 4 2 WNW 996,7 40 0 0,0
23.01.2021 17:00:00 1,9 -1,0 - - 4 2 W 996,4 50 0 0,0
23.01.2021 16:00:00 3,1 -0,7 - - 8 4 WNW 995,9 45 0 0,0
23.01.2021 15:00:00 4,5 0,2 - - 5 3 NW 995,2 30 36 0,0
23.01.2021 14:00:00 3,7 0,6 - - 9 5 NNW 995,1 26 36 0,0
23.01.2021 13:00:00 3,5 1,3 - - 4 2 NW 994,7 25 60 0,0
23.01.2021 12:00:00 1,2 1,2 - - 5 3 NW 995,0 17 0 0,0
23.01.2021 11:00:00 -0,3 -0,3 - - 2 1 ZZW 995,0 2,6 0 0,0
23.01.2021 10:00:00 -1,3 -1,3 - - 4 2 WNW 994,7 3,3 0 0,0
23.01.2021 09:00:00 -2,4 -2,6 5,9 7,4 4 2 Z 994,3 6 0 0,0
23.01.2021 08:00:00 -2,2 -2,4 - - 2 1 W 994,1 5 0 0,0
23.01.2021 07:00:00 -2,2 -2,4 - - 2 1 OZO 993,8 7 0 0,0
23.01.2021 06:00:00 -2,1 -2,4 - - 2 1 N 994,1 12 0 0,0
23.01.2021 05:00:00 -2,0 -2,3 - - 2 1 WZW 994,2 16 0 0,0
23.01.2021 04:00:00 -1,3 -2,0 - - 0 0 N 994,3 19 0 0,0
23.01.2021 03:00:00 0,6 -1,2 - - 2 1 WZW 994,9 50 0 0,0
23.01.2021 02:00:00 2,1 -0,1 - - 8 4 W 994,6 50 0 0,0
23.01.2021 01:00:00 3,5 1,5 - - 5 3 WNW 994,5 50 0 0,0
23.01.2021 00:00:00 3,6 2,0 - - 9 5 WZW 994,6 50 - 0,0
22.01.2021 23:00:00 3,1 1,9 - - 9 5 WZW 994,1 40 0 0,0
22.01.2021 22:00:00 2,8 1,5 - - 9 5 WZW 993,7 50 0 0,0
22.01.2021 21:00:00 3,1 1,8 - - 9 5 ZW 993,8 26 0 0,0
22.01.2021 20:00:00 3,7 2,6 - - 9 5 ZW 993,8 50 0 0,0
22.01.2021 19:00:00 3,0 2,2 - - 4 2 ZZW 993,6 28 0 0,0
22.01.2021 18:00:00 4,2 3,3 - - 9 5 ZZW 993,8 50 0 1,2
22.01.2021 17:00:00 5,3 3,4 - - 5 3 W 993,9 4,3 0 0,4
22.01.2021 16:00:00 6,8 1,9 - - 4 2 ZZW 993,8 40 0 0,0
22.01.2021 15:00:00 7,2 1,0 - - 11 6 ZW 993,9 45 36 0,0
22.01.2021 14:00:00 7,9 2,0 - - 13 7 ZW 993,7 30 54 0,0
22.01.2021 13:00:00 7,6 2,6 - - 11 6 WZW 994,1 40 60 0,0
22.01.2021 12:00:00 6,6 2,1 - - 11 6 WZW 994,2 45 60 0,0
22.01.2021 11:00:00 5,1 2,2 - - 5 3 ZW 994,3 23 54 0,2
22.01.2021 10:00:00 2,2 2,1 - - 0 0 N 993,8 19 24 0,0
22.01.2021 09:00:00 -0,8 -1,0 6,4 7,4 4 2 WZW 993,3 7 0 0,0
22.01.2021 08:00:00 -0,3 -0,8 - - 8 4 ZW 992,2 15 0 0,0
22.01.2021 07:00:00 0,5 -0,1 - - 9 5 WZW 991,3 23 0 0,0
22.01.2021 06:00:00 1,2 0,7 - - 11 6 W 990,6 22 0 0,0
22.01.2021 05:00:00 1,0 0,3 - - 9 5 ZW 990,6 20 0 0,0
22.01.2021 04:00:00 1,2 0,8 - - 9 5 WZW 990,0 21 0 0,0
22.01.2021 03:00:00 1,2 0,2 - - 8 4 WZW 989,4 27 0 0,0
22.01.2021 02:00:00 2,1 1,0 - - 13 7 W 988,9 30 0 0,0
22.01.2021 01:00:00 0,8 0,3 - - 9 5 WZW 988,6 30 0 0,0
22.01.2021 00:00:00 1,9 0,3 - - 8 4 WZW 988,0 30 - 0,0
21.01.2021 23:00:00 3,4 1,4 - - 8 4 W 987,3 35 0 0,0
21.01.2021 22:00:00 4,6 2,4 - - 11 6 W 986,0 35 0 0,0
21.01.2021 21:00:00 4,9 3,1 - - 9 5 W 985,4 40 0 0,0
21.01.2021 20:00:00 4,9 2,6 - - 8 4 WZW 984,6 50 0 0,0
21.01.2021 19:00:00 5,5 2,2 - - 5 3 WZW 984,5 50 0 0,0
21.01.2021 18:00:00 6,0 2,5 - - 5 3 ZW 984,2 45 0 0,0
21.01.2021 17:00:00 6,4 3,6 - - 8 4 ZZW 984,6 30 0 0,0
21.01.2021 16:00:00 7,1 3,4 - - 11 6 ZZW 984,9 35 0 0,0
21.01.2021 15:00:00 7,5 3,3 - - 15 8 ZW 985,7 26 0 0,0
21.01.2021 14:00:00 8,2 3,7 - - 15 8 ZW 986,6 30 0 0,0
21.01.2021 13:00:00 8,2 3,2 - - 15 8 ZW 987,3 27 6 0,0
21.01.2021 12:00:00 7,6 2,7 - - 18 10 ZW 987,7 29 30 0,0

tt = temperatuur
td = dauwpunt
tt -20cm = temperatuur -20cm
tt -100cm = temperatuur -100cm
ff = windsnelheid
dd = windrichting
ppp = luchtdruk
vv = zicht
sd = Zonneschijnduur
rr = neerslag

Weerstations in de omgeving